Flag Weather past 2 weeks in Sacramento, California, U.S.A.

Now
48 °F

Fog.


Feels Like: 48 °F
Forecast: 43 / 62 °F
Wind: No wind

Location: Sacramento Executive Airport

Current Time: Nov 27, 2014 at 10:10:38 PM

Latest Report: Nov 27, 2014 at 8:53 PM


Visibility: 1 mi

Pressure: 30.06 "Hg

Humidity: 89%

Dew point: 45 °F

Location of SacramentoLocation

Historic Weather in Sacramento — Graph

°F

Sacramento temperature yesterday

Maximum temperature yesterday: 67 °F (at 1:53 PM)
Minimum temperature yesterday: 39 °F (at 6:53 AM)
Average temperature yesterday: 50 °F

Past Weeks' High & Low Weather Summary

 TemperatureHumidityPressure
High69 °F (Nov 27, 2:53 PM)100% (Nov 20, 10:03 PM)30.50 "Hg (Nov 20, 10:03 PM)
Low38 °F (Nov 18, 4:53 AM)27% (Nov 17, 2:53 PM)29.95 "Hg (Nov 13, 3:53 AM)
Average53 °F80%30.18 "Hg
* Reported Nov 12 8:53 PM — Nov 27 8:53 PM, Sacramento, Weather by CustomWeather, © 2014

Note: Actual official high and low records may vary slightly from our data, if they occured in-between our weather recording intervals... More about our weather records

Advertising

Sacramento weather history for previous 24 hours

 ConditionsComfort  
Time TempWeatherWind HumidityBarometerVisibility
8:53 PM
Nov 27
48 °FFog.No wind89%30.06 "Hg1 mi
7:53 PM49 °FFog.No wind90%30.06 "Hg5 mi
6:53 PM51 °FFog.No wind89%30.06 "Hg6 mi
5:53 PM54 °FClear.No wind80%30.06 "Hg9 mi
4:53 PM60 °FClear.No wind65%30.06 "Hg10 mi
3:53 PM67 °FSunny.3 mph51%30.07 "Hg10 mi
2:53 PM69 °FSunny.No wind45%30.09 "Hg10 mi
1:53 PM67 °FSunny.No wind49%30.09 "Hg10 mi
12:53 PM66 °FSunny.No wind50%30.13 "Hg10 mi
11:53 AM64 °FSunny.No wind58%30.16 "Hg10 mi
10:53 AM62 °FSunny.No wind60%30.19 "Hg10 mi
9:53 AM58 °FSunny.No wind72%30.20 "Hg9 mi
8:53 AM52 °FFog.No wind86%30.21 "Hg6 mi
7:53 AM47 °FFog.No wind93%30.20 "Hg4 mi
6:53 AM46 °FFog.No wind93%30.19 "Hg4 mi
5:53 AM47 °FFog.No wind93%30.19 "Hg4 mi
5:03 AM45 °FFog.3 mph93%30.19 "Hg3 mi
4:53 AM45 °FFog.No wind93%30.18 "Hg2 mi
3:53 AM46 °FFog.No wind93%30.19 "Hg5 mi
2:53 AM47 °FClear.No wind90%30.21 "Hg8 mi
1:53 AM46 °FFog.No wind93%30.21 "Hg4 mi
12:53 AM46 °FFog.No wind93%30.21 "Hg5 mi
11:53 PM
Nov 26
47 °FClear.No wind90%30.23 "Hg8 mi
10:53 PM47 °FFog.No wind93%30.23 "Hg4 mi
Weather by CustomWeather, © 2014

See weather overviewHow to use our weather pages